contact:dominique.lefevre@mio.osupytheas.fr, maurice.libes@osupytheas.fr, didier.mallarino@osupytheas.fr
Project:EMSO http://www.emso-fr.org/EMSO-France
Depth: 2436.0 m
Title:EMSO Ligure Ouest : Data MII capteur AQUADOPP
Date,Latitude,Longitude,X_East,Y_North,Z_Up,Amplitude_X,Amplitude_Y,Amplitude_Z,Batterie,SoundSpeed,Heading,Pitch,Roll,Pressure,TIS,Speed,Direction
, degrees North, degrees East, m.s-1, m.s-1,m.s-1, 1, 1, 1, Volt, m.s-1, degree, degree, degree, dbar, degree_C, m.s-1, degree
2022-12-13T00:04:03,42.805,6.029,-0.012,-0.005,-0.002,101.0,101.0,101.0,13.4,1505.2,331.5,-0.8,1.8,2471.17,13.28,0.013,247.4
2022-12-13T00:07:03,42.805,6.029,-0.026,0.029,-0.027,101.0,102.0,101.0,13.4,1505.2,329.4,-0.8,1.8,2471.122,13.28,0.038,318.1
2022-12-13T00:10:03,42.805,6.029,-0.013,0.005,-0.038,102.0,101.0,101.0,13.3,1505.2,334.9,-0.7,1.8,2471.102,13.29,0.013,291.0
2022-12-13T00:13:03,42.805,6.029,-0.016,0.002,-0.039,101.0,101.0,101.0,13.4,1505.2,324.5,-0.8,1.8,2471.076,13.29,0.016,277.1
2022-12-13T00:16:03,42.805,6.029,0.014,-0.016,-0.045,103.0,100.0,101.0,13.4,1505.2,332.4,-0.8,1.9,2471.057,13.29,0.021,138.8
2022-12-13T00:19:03,42.805,6.029,-0.006,0.006,-0.007,101.0,102.0,101.0,13.4,1505.2,322.5,-0.8,1.8,2471.069,13.29,0.008,315.0
2022-12-13T00:22:03,42.805,6.029,-0.019,0.003,-0.027,101.0,103.0,101.0,13.4,1505.2,317.3,-0.8,1.8,2471.065,13.29,0.019,279.0
2022-12-13T00:25:03,42.805,6.029,0.0,0.005,-0.027,103.0,100.0,101.0,13.4,1505.2,326.3,-0.7,1.8,2471.029,13.29,0.005,0.0
2022-12-13T00:28:03,42.805,6.029,-0.016,0.004,-0.032,102.0,101.0,101.0,13.4,1505.2,319.1,-0.7,1.8,2471.083,13.29,0.016,284.0
2022-12-13T00:31:03,42.805,6.029,-0.026,0.029,0.0,102.0,101.0,102.0,13.3,1505.2,337.3,-0.7,1.8,2471.056,13.29,0.038,318.1
2022-12-13T00:34:03,42.805,6.029,-0.026,0.007,-0.011,102.0,102.0,101.0,13.4,1505.2,319.7,-0.8,1.8,2471.065,13.29,0.026,285.1
2022-12-13T00:37:03,42.805,6.029,-0.023,0.021,-0.004,102.0,102.0,101.0,13.4,1505.2,331.5,-0.8,1.8,2471.077,13.29,0.031,312.4
2022-12-13T00:40:03,42.805,6.029,-0.014,0.005,-0.014,102.0,102.0,101.0,13.4,1505.2,327.4,-0.8,1.9,2471.058,13.29,0.014,289.6
2022-12-13T00:43:03,42.805,6.029,-0.007,-0.001,-0.006,103.0,101.0,101.0,13.4,1505.2,320.1,-0.7,1.8,2471.029,13.29,0.007,261.9
2022-12-13T00:46:03,42.805,6.029,-0.028,-0.011,-0.024,102.0,104.0,101.0,13.4,1505.2,320.1,-0.8,1.8,2471.029,13.29,0.03,248.6
2022-12-13T00:49:03,42.805,6.029,-0.024,0.004,-0.035,102.0,102.0,102.0,13.4,1505.2,326.7,-0.7,1.8,2471.059,13.29,0.024,279.5
2022-12-13T00:52:03,42.805,6.029,-0.019,0.024,-0.03,102.0,103.0,101.0,13.4,1505.2,333.8,-0.8,1.8,2471.098,13.29,0.03,321.6
2022-12-13T00:55:03,42.805,6.029,-0.019,0.004,-0.013,102.0,102.0,102.0,13.4,1505.2,318.6,-0.7,1.8,2471.075,13.29,0.019,281.9
2022-12-13T00:58:03,42.805,6.029,-0.013,-0.007,-0.059,102.0,102.0,101.0,13.4,1505.2,323.2,-0.8,1.8,2471.066,13.29,0.014,241.7
2022-12-13T01:04:03,42.805,6.029,-0.043,0.004,-0.006,105.0,103.0,103.0,13.4,1505.2,317.9,-0.8,1.8,2471.098,13.28,0.043,275.3
2022-12-13T01:07:03,42.805,6.029,0.007,0.009,-0.033,103.0,102.0,102.0,13.3,1505.2,337.3,-0.8,1.8,2471.113,13.29,0.011,37.9
2022-12-13T01:10:03,42.805,6.029,-0.037,0.019,-0.016,102.0,102.0,102.0,13.4,1505.2,325.7,-0.8,1.8,2471.098,13.29,0.041,297.2
2022-12-13T01:13:03,42.805,6.029,-0.033,0.021,-0.04,101.0,103.0,102.0,13.4,1505.2,327.0,-0.8,1.8,2471.059,13.29,0.039,302.5
2022-12-13T01:16:03,42.805,6.029,-0.022,0.008,-0.046,102.0,102.0,101.0,13.4,1505.2,329.1,-0.8,1.8,2471.066,13.29,0.023,290.0
2022-12-13T01:19:03,42.805,6.029,-0.022,0.012,-0.02,102.0,103.0,101.0,13.4,1505.2,335.2,-0.7,1.8,2471.079,13.29,0.025,298.6
2022-12-13T01:22:03,42.805,6.029,-0.034,0.012,-0.03,102.0,102.0,102.0,13.4,1505.2,335.4,-0.7,1.8,2471.037,13.29,0.036,289.4
2022-12-13T01:25:03,42.805,6.029,-0.023,0.021,-0.041,103.0,101.0,102.0,13.3,1505.2,327.9,-0.7,1.9,2471.083,13.29,0.031,312.4
2022-12-13T01:28:03,42.805,6.029,-0.017,0.003,-0.032,101.0,101.0,101.0,13.3,1505.2,333.8,-0.8,1.8,2471.05,13.29,0.017,280.0
2022-12-13T01:31:03,42.805,6.029,-0.019,0.006,-0.032,101.0,103.0,100.0,13.4,1505.2,321.3,-0.8,1.8,2471.088,13.29,0.019,287.5
2022-12-13T01:34:03,42.805,6.029,-0.02,0.01,-0.047,101.0,101.0,101.0,13.4,1505.2,336.9,-0.8,1.8,2471.077,13.29,0.022,296.6
2022-12-13T01:37:03,42.805,6.029,-0.037,0.003,-0.015,101.0,101.0,103.0,13.3,1505.2,329.7,-0.7,1.8,2471.073,13.29,0.037,274.6
2022-12-13T01:40:03,42.805,6.029,-0.015,0.001,-0.011,103.0,102.0,101.0,13.4,1505.2,330.8,-0.7,1.8,2471.072,13.29,0.015,273.8
2022-12-13T01:43:03,42.805,6.029,-0.018,0.012,-0.035,102.0,102.0,102.0,13.3,1505.2,333.1,-0.7,1.8,2471.041,13.29,0.021,303.7
2022-12-13T01:46:03,42.805,6.029,-0.027,0.021,0.0,102.0,101.0,101.0,13.3,1505.2,329.2,-0.8,1.8,2471.059,13.29,0.034,307.9
2022-12-13T01:49:03,42.805,6.029,-0.008,0.001,-0.017,102.0,102.0,101.0,13.3,1505.2,331.1,-0.7,1.8,2471.048,13.29,0.008,277.1
2022-12-13T01:52:03,42.805,6.029,-0.023,0.007,-0.026,102.0,104.0,101.0,13.4,1505.2,330.8,-0.7,1.8,2471.097,13.29,0.024,286.9
2022-12-13T01:55:03,42.805,6.029,-0.012,0.015,-0.006,103.0,101.0,102.0,13.4,1505.2,320.7,-0.8,1.8,2471.048,13.29,0.019,321.3
2022-12-13T01:58:03,42.805,6.029,-0.003,0.016,-0.018,102.0,102.0,101.0,13.4,1505.2,335.6,-0.7,1.9,2471.049,13.29,0.016,349.4
2022-12-13T02:04:03,42.805,6.029,-0.042,0.028,-0.026,101.0,102.0,101.0,13.3,1505.2,333.4,-0.8,1.8,2471.092,13.29,0.05,303.7
2022-12-13T02:07:03,42.805,6.029,-0.006,0.019,0.014,102.0,101.0,101.0,13.4,1505.2,324.7,-0.8,1.8,2471.095,13.29,0.019,342.5
2022-12-13T02:10:03,42.805,6.029,-0.005,0.022,-0.008,103.0,101.0,100.0,13.4,1505.2,328.2,-0.7,1.8,2471.044,13.29,0.022,347.2
2022-12-13T02:13:05,42.805,6.029,-0.033,0.019,-0.023,102.0,101.0,101.0,13.4,1505.2,330.8,-0.8,1.8,2471.084,13.29,0.038,299.9
2022-12-13T02:16:03,42.805,6.029,-0.034,0.016,-0.022,101.0,102.0,101.0,13.4,1505.2,327.4,-0.7,1.8,2471.103,13.29,0.037,295.2
2022-12-13T02:19:03,42.805,6.029,-0.013,0.022,-0.029,101.0,102.0,102.0,13.4,1505.2,322.6,-0.7,1.8,2471.079,13.29,0.025,329.4
2022-12-13T02:22:03,42.805,6.029,-0.016,0.016,-0.017,101.0,101.0,101.0,13.4,1505.2,318.7,-0.8,1.8,2471.08,13.29,0.022,315.0
2022-12-13T02:25:03,42.805,6.029,-0.019,-0.016,-0.067,102.0,102.0,101.0,13.4,1505.2,333.4,-0.8,1.8,2471.086,13.29,0.024,229.9
2022-12-13T02:28:03,42.805,6.029,0.016,0.01,0.001,102.0,102.0,101.0,13.3,1505.2,322.9,-0.7,1.8,2471.063,13.29,0.018,58.0
2022-12-13T02:31:03,42.805,6.029,-0.011,0.002,-0.018,102.0,102.0,101.0,13.3,1505.2,315.9,-0.8,1.8,2471.023,13.29,0.011,280.3
2022-12-13T02:34:03,42.805,6.029,-0.02,0.008,-0.006,103.0,100.0,102.0,13.4,1505.2,334.1,-0.8,1.8,2471.056,13.29,0.021,291.8
2022-12-13T02:37:03,42.805,6.029,-0.023,-0.008,-0.033,102.0,100.0,101.0,13.3,1505.2,331.3,-0.7,1.8,2471.058,13.29,0.024,250.8
2022-12-13T02:40:03,42.805,6.029,-0.014,0.015,-0.019,102.0,102.0,101.0,13.3,1505.2,321.1,-0.8,1.8,2471.05,13.29,0.02,317.0
2022-12-13T02:43:06,42.805,6.029,-0.03,0.0,-0.008,102.0,102.0,100.0,13.4,1505.2,323.2,-0.7,1.8,2471.058,13.29,0.03,270.0
2022-12-13T02:46:03,42.805,6.029,-0.022,0.019,0.003,102.0,102.0,102.0,13.4,1505.2,318.1,-0.8,1.8,2471.054,13.29,0.029,310.8
2022-12-13T02:49:03,42.805,6.029,-0.037,0.012,-0.027,101.0,102.0,102.0,13.3,1505.2,326.3,-0.8,1.8,2471.053,13.29,0.038,288.0
2022-12-13T02:52:03,42.805,6.029,-0.023,0.018,-0.027,102.0,102.0,101.0,13.4,1505.2,324.5,-0.7,1.8,2471.07,13.29,0.029,308.0
2022-12-13T02:55:03,42.805,6.029,-0.01,-0.006,-0.043,102.0,101.0,101.0,13.3,1505.2,318.4,-0.8,1.8,2471.021,13.29,0.011,239.0
2022-12-13T02:58:04,42.805,6.029,-0.017,0.004,-0.015,102.0,102.0,101.0,13.4,1505.2,329.7,-0.8,1.8,2471.06,13.29,0.017,283.2
2022-12-13T03:04:03,42.805,6.029,-0.018,0.006,-0.013,103.0,102.0,101.0,13.4,1505.2,336.0,-0.8,1.8,2471.061,13.29,0.018,288.4
2022-12-13T03:07:03,42.805,6.029,-0.046,0.03,0.006,102.0,101.0,101.0,13.4,1505.2,330.4,-0.8,1.8,2471.096,13.29,0.054,303.1
2022-12-13T03:10:03,42.805,6.029,-0.03,0.009,-0.034,101.0,102.0,101.0,13.3,1505.2,334.4,-0.7,1.8,2471.097,13.29,0.031,286.7
2022-12-13T03:13:03,42.805,6.029,-0.008,-0.001,-0.019,103.0,101.0,101.0,13.4,1505.2,316.0,-0.7,1.8,2471.1,13.29,0.008,262.9
2022-12-13T03:16:03,42.805,6.029,-0.023,0.011,0.001,103.0,102.0,101.0,13.4,1505.2,333.4,-0.8,1.8,2471.094,13.29,0.025,295.6
2022-12-13T03:19:03,42.805,6.029,-0.03,0.014,-0.025,102.0,100.0,102.0,13.3,1505.2,327.3,-0.8,1.8,2471.04,13.29,0.033,295.0
2022-12-13T03:22:03,42.805,6.029,-0.004,0.005,-0.042,101.0,104.0,102.0,13.3,1505.2,331.5,-0.7,1.8,2471.091,13.29,0.006,321.3
2022-12-13T03:25:03,42.805,6.029,-0.019,0.0,-0.027,102.0,102.0,102.0,13.4,1505.2,326.3,-0.8,1.8,2471.03,13.29,0.019,270.0
2022-12-13T03:28:03,42.805,6.029,-0.019,0.007,-0.027,102.0,100.0,102.0,13.4,1505.2,327.4,-0.7,1.8,2471.038,13.29,0.02,290.2
2022-12-13T03:31:03,42.805,6.029,-0.011,0.018,-0.007,102.0,103.0,100.0,13.4,1505.2,317.8,-0.7,1.8,2471.06,13.29,0.021,328.6
2022-12-13T03:34:03,42.805,6.029,-0.004,0.011,-0.004,101.0,102.0,102.0,13.4,1505.2,330.6,-0.8,1.8,2471.04,13.29,0.011,340.0
2022-12-13T03:37:03,42.805,6.029,-0.004,0.007,0.003,102.0,102.0,101.0,13.3,1505.2,325.3,-0.8,1.8,2471.076,13.29,0.008,330.3
2022-12-13T03:40:03,42.805,6.029,-0.02,0.031,0.021,101.0,102.0,102.0,13.4,1505.2,316.4,-0.7,1.8,2471.079,13.29,0.036,327.2
2022-12-13T03:43:03,42.805,6.029,-0.01,0.019,0.009,102.0,100.0,102.0,13.3,1505.2,323.7,-0.8,1.9,2471.025,13.29,0.021,332.2
2022-12-13T03:46:03,42.805,6.029,-0.01,0.007,-0.002,102.0,101.0,101.0,13.4,1505.2,334.5,-0.7,1.8,2471.043,13.29,0.012,305.0
2022-12-13T03:49:03,42.805,6.029,0.0,0.008,-0.041,101.0,102.0,101.0,13.3,1505.2,316.5,-0.8,1.8,2471.064,13.29,0.008,0.0
2022-12-13T03:52:03,42.805,6.029,-0.012,0.024,0.02,102.0,102.0,101.0,13.4,1505.2,321.1,-0.7,1.8,2471.067,13.29,0.026,333.4
2022-12-13T03:55:03,42.805,6.029,-0.016,0.019,-0.013,103.0,102.0,102.0,13.3,1505.2,335.7,-0.8,1.8,2471.08,13.29,0.024,319.9
2022-12-13T03:58:03,42.805,6.029,0.006,0.024,-0.015,102.0,101.0,102.0,13.3,1505.2,334.1,-0.8,1.8,2471.058,13.29,0.024,14.0
2022-12-13T04:04:03,42.805,6.029,0.016,0.009,-0.017,103.0,102.0,101.0,13.4,1505.2,320.1,-0.8,1.8,2471.1,13.29,0.018,60.6
2022-12-13T04:07:03,42.805,6.029,-0.031,0.014,-0.018,103.0,101.0,100.0,13.4,1505.2,317.4,-0.8,1.8,2471.102,13.29,0.034,294.3
2022-12-13T04:10:03,42.805,6.029,-0.019,0.007,-0.019,101.0,102.0,101.0,13.3,1505.2,317.8,-0.7,1.8,2471.103,13.29,0.02,290.2
2022-12-13T04:13:03,42.805,6.029,-0.011,0.007,-0.008,102.0,100.0,102.0,13.4,1505.2,324.5,-0.8,1.8,2471.098,13.29,0.013,302.5
2022-12-13T04:16:03,42.805,6.029,0.0,0.003,0.007,101.0,102.0,101.0,13.3,1505.2,335.2,-0.8,1.8,2471.1,13.29,0.003,0.0
2022-12-13T04:19:03,42.805,6.029,-0.012,0.015,-0.034,102.0,102.0,101.0,13.4,1505.2,325.7,-0.8,1.8,2471.076,13.29,0.019,321.3
2022-12-13T04:22:03,42.805,6.029,-0.002,0.022,-0.01,102.0,101.0,101.0,13.4,1505.2,331.0,-0.8,1.8,2471.068,13.29,0.022,354.8
2022-12-13T04:25:03,42.805,6.029,-0.031,0.027,-0.018,100.0,102.0,102.0,13.4,1505.2,331.2,-0.8,1.8,2471.056,13.29,0.041,311.1
2022-12-13T04:28:03,42.805,6.029,-0.018,-0.003,-0.024,100.0,102.0,101.0,13.4,1505.2,317.9,-0.8,1.8,2471.077,13.29,0.018,260.5
2022-12-13T04:31:03,42.805,6.029,0.0,0.018,0.006,102.0,101.0,101.0,13.3,1505.2,322.1,-0.8,1.8,2471.074,13.29,0.018,0.0
2022-12-13T04:34:03,42.805,6.029,0.001,0.014,0.008,102.0,103.0,101.0,13.4,1505.2,337.1,-0.8,1.8,2471.089,13.29,0.014,4.1
2022-12-13T04:37:03,42.805,6.029,-0.01,-0.009,-0.021,101.0,102.0,102.0,13.4,1505.2,319.0,-0.7,1.8,2471.088,13.29,0.013,228.0
2022-12-13T04:40:03,42.805,6.029,-0.007,0.015,0.008,101.0,102.0,102.0,13.4,1505.2,326.1,-0.7,1.8,2471.072,13.29,0.016,335.0
2022-12-13T04:43:03,42.805,6.029,-0.01,0.005,-0.035,103.0,101.0,102.0,13.4,1505.2,320.9,-0.8,1.8,2471.085,13.29,0.011,296.6
2022-12-13T04:46:03,42.805,6.029,-0.023,0.044,0.011,102.0,100.0,102.0,13.4,1505.2,322.8,-0.8,1.8,2471.092,13.29,0.049,332.4
2022-12-13T04:49:03,42.805,6.029,-0.001,0.01,-0.004,104.0,102.0,101.0,13.4,1505.2,333.7,-0.8,1.8,2471.059,13.29,0.01,354.3
2022-12-13T04:52:03,42.805,6.029,-0.001,0.017,-0.002,102.0,102.0,101.0,13.4,1505.2,317.4,-0.8,1.8,2471.079,13.29,0.017,356.6
2022-12-13T04:55:03,42.805,6.029,-0.007,0.002,-0.014,102.0,103.0,102.0,13.3,1505.2,336.3,-0.7,1.8,2471.112,13.3,0.007,285.9
2022-12-13T04:58:03,42.805,6.029,0.014,0.004,-0.021,101.0,102.0,102.0,13.4,1505.2,325.0,-0.8,1.8,2471.091,13.3,0.014,74.1
2022-12-13T05:04:03,42.805,6.029,-0.024,0.018,-0.028,102.0,103.0,102.0,13.4,1505.2,330.3,-0.7,1.8,2471.095,13.29,0.03,306.9
2022-12-13T05:07:03,42.805,6.029,-0.008,0.002,-0.054,102.0,104.0,101.0,13.3,1505.2,326.3,-0.8,1.8,2471.103,13.29,0.008,284.0
2022-12-13T05:10:03,42.805,6.029,-0.017,0.01,-0.011,102.0,102.0,101.0,13.3,1505.2,318.8,-0.8,1.8,2471.127,13.29,0.019,300.5
2022-12-13T05:13:03,42.805,6.029,0.004,-0.025,-0.058,102.0,101.0,101.0,13.4,1505.2,328.6,-0.7,1.8,2471.087,13.29,0.025,170.9
2022-12-13T05:16:03,42.805,6.029,-0.005,0.007,-0.001,101.0,102.0,101.0,13.3,1505.2,321.9,-0.8,1.9,2471.115,13.29,0.008,324.5
2022-12-13T05:19:03,42.805,6.029,-0.017,0.004,-0.023,102.0,102.0,100.0,13.4,1505.2,322.3,-0.7,1.8,2471.094,13.29,0.017,283.2
2022-12-13T05:22:03,42.805,6.029,-0.007,0.013,-0.034,102.0,101.0,102.0,13.3,1505.2,334.4,-0.7,1.8,2471.101,13.29,0.014,331.7
2022-12-13T05:25:03,42.805,6.029,-0.005,0.013,-0.02,103.0,100.0,102.0,13.4,1505.2,326.1,-0.8,1.8,2471.126,13.29,0.013,339.0
2022-12-13T05:28:03,42.805,6.029,-0.023,0.013,-0.008,101.0,101.0,101.0,13.4,1505.2,331.9,-0.8,1.8,2471.111,13.29,0.026,299.5
2022-12-13T05:31:03,42.805,6.029,0.006,0.005,-0.019,104.0,102.0,101.0,13.4,1505.2,319.2,-0.8,1.8,2471.091,13.29,0.007,50.2
2022-12-13T05:34:03,42.805,6.029,-0.003,0.008,-0.008,103.0,102.0,102.0,13.4,1505.2,331.3,-0.8,1.8,2471.124,13.29,0.008,339.4
2022-12-13T05:37:03,42.805,6.029,0.007,0.003,-0.021,103.0,102.0,101.0,13.4,1505.2,326.7,-0.8,1.8,2471.097,13.3,0.007,66.8
2022-12-13T05:40:03,42.805,6.029,-0.01,0.004,-0.038,103.0,101.0,101.0,13.3,1505.2,327.9,-0.7,1.8,2471.124,13.29,0.01,291.8
2022-12-13T05:43:03,42.805,6.029,0.023,-0.003,-0.018,101.0,102.0,102.0,13.4,1505.2,322.7,-0.7,1.8,2471.13,13.3,0.023,97.4
2022-12-13T05:46:03,42.805,6.029,-0.03,0.024,-0.011,102.0,102.0,101.0,13.4,1505.2,325.6,-0.8,1.8,2471.128,13.3,0.038,308.7
2022-12-13T05:49:03,42.805,6.029,-0.007,0.009,0.0,101.0,102.0,101.0,13.4,1505.2,325.3,-0.8,1.8,2471.125,13.29,0.011,322.1
2022-12-13T05:52:03,42.805,6.029,-0.002,-0.01,-0.016,102.0,101.0,101.0,13.4,1505.2,323.7,-0.8,1.8,2471.111,13.29,0.01,191.3
2022-12-13T05:55:03,42.805,6.029,0.001,0.001,-0.004,101.0,101.0,102.0,13.4,1505.2,326.1,-0.7,1.8,2471.115,13.29,0.001,45.0
2022-12-13T05:58:03,42.805,6.029,-0.002,0.017,-0.001,101.0,101.0,101.0,13.4,1505.2,330.4,-0.7,1.8,2471.117,13.29,0.017,353.3
2022-12-13T06:04:03,42.805,6.029,-0.021,-0.017,-0.023,104.0,101.0,102.0,13.4,1505.2,322.3,-0.8,1.8,2471.133,13.29,0.027,231.0
2022-12-13T06:07:03,42.805,6.029,-0.015,0.016,-0.027,101.0,103.0,100.0,13.4,1505.2,323.2,-0.8,1.8,2471.121,13.29,0.021,316.9
2022-12-13T06:10:03,42.805,6.029,-0.013,0.023,-0.008,101.0,102.0,101.0,13.3,1505.2,332.4,-0.8,1.8,2471.142,13.29,0.026,330.5
2022-12-13T06:13:03,42.805,6.029,-0.002,0.027,-0.002,101.0,101.0,101.0,13.4,1505.2,328.8,-0.8,1.8,2471.143,13.29,0.027,355.8
2022-12-13T06:16:03,42.805,6.029,-0.015,0.011,-0.04,101.0,101.0,101.0,13.3,1505.2,326.8,-0.8,1.8,2471.121,13.29,0.018,306.3
2022-12-13T06:19:03,42.805,6.029,-0.008,0.017,-0.006,101.0,102.0,100.0,13.4,1505.2,331.0,-0.8,1.8,2471.183,13.29,0.018,334.8
2022-12-13T06:22:03,42.805,6.029,0.0,0.024,-0.021,101.0,101.0,101.0,13.4,1505.2,336.8,-0.7,1.8,2471.124,13.29,0.024,0.0
2022-12-13T06:25:03,42.805,6.029,-0.013,0.002,-0.02,102.0,100.0,102.0,13.4,1505.2,322.4,-0.8,1.8,2471.135,13.29,0.013,278.7
2022-12-13T06:28:03,42.805,6.029,-0.03,0.004,-0.027,101.0,101.0,100.0,13.3,1505.2,317.8,-0.7,1.8,2471.165,13.29,0.03,277.6
2022-12-13T06:31:03,42.805,6.029,-0.005,0.013,-0.028,100.0,101.0,101.0,13.3,1505.2,329.8,-0.8,1.8,2471.153,13.29,0.013,339.0
2022-12-13T06:34:03,42.805,6.029,-0.002,0.002,-0.017,101.0,101.0,100.0,13.4,1505.2,332.2,-0.8,1.8,2471.144,13.29,0.002,315.0
2022-12-13T06:37:03,42.805,6.029,-0.012,0.011,-0.008,101.0,104.0,101.0,13.4,1505.2,326.7,-0.8,1.8,2471.139,13.29,0.016,312.5
2022-12-13T06:40:03,42.805,6.029,-0.003,0.005,-0.045,101.0,101.0,101.0,13.4,1505.2,330.8,-0.7,1.8,2471.161,13.29,0.005,329.0
2022-12-13T06:43:03,42.805,6.029,0.0,0.016,-0.008,100.0,101.0,100.0,13.4,1505.2,328.4,-0.8,1.8,2471.118,13.29,0.016,0.0
2022-12-13T06:46:03,42.805,6.029,-0.008,0.029,0.004,101.0,100.0,101.0,13.3,1505.2,325.1,-0.8,1.8,2471.18,13.29,0.03,344.6
2022-12-13T06:49:03,42.805,6.029,0.0,0.001,-0.033,103.0,103.0,100.0,13.3,1505.2,318.8,-0.7,1.8,2471.181,13.29,0.001,0.0
2022-12-13T06:52:03,42.805,6.029,0.011,0.0,0.01,102.0,99.0,100.0,13.4,1505.2,324.0,-0.7,1.8,2471.155,13.29,0.011,90.0
2022-12-13T06:55:03,42.805,6.029,0.013,-0.011,-0.036,101.0,101.0,100.0,13.4,1505.2,331.4,-0.8,1.8,2471.155,13.29,0.017,130.2
2022-12-13T06:58:03,42.805,6.029,0.011,-0.011,-0.041,102.0,101.0,101.0,13.4,1505.2,323.5,-0.8,1.8,2471.135,13.29,0.015,135.0
2022-12-13T07:04:03,42.805,6.029,0.021,-0.003,0.001,102.0,104.0,100.0,13.4,1505.2,326.9,-0.8,1.8,2471.201,13.29,0.021,98.1
2022-12-13T07:07:03,42.805,6.029,-0.009,-0.003,-0.021,102.0,102.0,100.0,13.4,1505.2,328.6,-0.8,1.8,2471.189,13.29,0.009,251.6
2022-12-13T07:10:03,42.805,6.029,-0.009,0.004,-0.031,101.0,103.0,100.0,13.4,1505.2,329.1,-0.8,1.8,2471.204,13.29,0.009,294.0
2022-12-13T07:13:03,42.805,6.029,0.032,0.002,0.015,101.0,99.0,101.0,13.3,1505.2,332.3,-0.8,1.8,2471.187,13.29,0.032,86.4
2022-12-13T07:16:03,42.805,6.029,0.028,0.003,0.003,101.0,102.0,100.0,13.3,1505.2,321.5,-0.7,1.8,2471.183,13.29,0.028,83.9
2022-12-13T07:19:03,42.805,6.029,0.02,-0.001,-0.004,101.0,101.0,101.0,13.4,1505.2,317.8,-0.8,1.8,2471.204,13.29,0.02,92.9
2022-12-13T07:22:03,42.805,6.029,-0.016,0.004,-0.018,101.0,101.0,101.0,13.4,1505.2,333.0,-0.8,1.8,2471.207,13.29,0.016,284.0
2022-12-13T07:25:03,42.805,6.029,0.008,-0.014,-0.046,102.0,101.0,100.0,13.4,1505.2,320.7,-0.7,1.8,2471.178,13.29,0.016,150.3
2022-12-13T07:28:03,42.805,6.029,0.008,0.005,-0.029,99.0,100.0,101.0,13.4,1505.2,320.2,-0.8,1.8,2471.185,13.29,0.009,58.0
2022-12-13T07:31:03,42.805,6.029,0.001,0.013,-0.006,103.0,102.0,100.0,13.4,1505.2,333.7,-0.8,1.8,2471.201,13.29,0.013,4.4
2022-12-13T07:34:03,42.805,6.029,0.0,0.013,0.011,102.0,101.0,101.0,13.4,1505.2,330.5,-0.8,1.8,2471.204,13.29,0.013,0.0
2022-12-13T07:37:03,42.805,6.029,-0.005,-0.003,-0.058,102.0,102.0,102.0,13.3,1505.2,323.6,-0.8,1.8,2471.237,13.29,0.005,239.0
2022-12-13T07:40:03,42.805,6.029,0.028,-0.008,-0.013,99.0,102.0,101.0,13.4,1505.2,330.1,-0.8,1.8,2471.192,13.3,0.029,105.9
2022-12-13T07:43:03,42.805,6.029,0.0,0.006,-0.019,100.0,102.0,100.0,13.4,1505.2,330.5,-0.7,1.8,2471.235,13.29,0.006,0.0
2022-12-13T07:46:03,42.805,6.029,-0.012,0.012,-0.037,101.0,102.0,101.0,13.4,1505.2,327.4,-0.8,1.8,2471.215,13.3,0.016,315.0
2022-12-13T07:49:03,42.805,6.029,-0.004,-0.001,0.002,103.0,101.0,101.0,13.4,1505.2,322.1,-0.7,1.8,2471.212,13.3,0.004,256.0
2022-12-13T07:52:03,42.805,6.029,0.002,-0.007,-0.029,102.0,103.0,101.0,13.4,1505.2,329.2,-0.7,1.8,2471.224,13.3,0.007,164.1
2022-12-13T07:55:03,42.805,6.029,-0.013,0.007,-0.02,103.0,101.0,101.0,13.3,1505.2,327.5,-0.8,1.8,2471.229,13.3,0.014,298.3
2022-12-13T07:58:03,42.805,6.029,0.01,-0.009,-0.041,102.0,102.0,101.0,13.4,1505.2,330.1,-0.8,1.8,2471.241,13.3,0.013,132.0
2022-12-13T08:04:03,42.805,6.029,-0.001,0.003,-0.009,102.0,102.0,100.0,13.4,1505.2,327.9,-0.8,1.8,2471.263,13.29,0.003,341.6
2022-12-13T08:07:03,42.805,6.029,-0.004,0.001,-0.02,101.0,103.0,102.0,13.3,1505.2,323.6,-0.8,1.8,2471.274,13.29,0.004,284.0
2022-12-13T08:10:03,42.805,6.029,-0.018,0.007,-0.05,102.0,100.0,101.0,13.4,1505.2,329.6,-0.8,1.8,2471.28,13.29,0.019,291.2
2022-12-13T08:13:03,42.805,6.029,-0.005,0.011,-0.003,102.0,101.0,100.0,13.3,1505.2,325.2,-0.8,1.8,2471.253,13.29,0.012,335.6
2022-12-13T08:16:03,42.805,6.029,0.011,0.008,-0.002,103.0,101.0,101.0,13.4,1505.2,331.7,-0.8,1.8,2471.241,13.3,0.013,54.0
2022-12-13T08:19:03,42.805,6.029,-0.007,0.006,-0.02,101.0,103.0,101.0,13.3,1505.2,330.2,-0.8,1.9,2471.288,13.3,0.009,310.6
2022-12-13T08:22:03,42.805,6.029,0.01,-0.016,-0.042,102.0,101.0,100.0,13.3,1505.2,333.7,-0.8,1.8,2471.241,13.3,0.018,148.0
2022-12-13T08:25:03,42.805,6.029,0.002,0.003,-0.028,101.0,102.0,101.0,13.3,1505.2,325.9,-0.8,1.8,2471.212,13.3,0.003,33.7
2022-12-13T08:28:03,42.805,6.029,-0.019,-0.006,-0.053,103.0,98.0,100.0,13.3,1505.2,325.8,-0.8,1.8,2471.24,13.3,0.019,252.5
